User: anonymous
Location: Mentone
(34.5413°N, 85.5351°W)
Time: 19:08:05
(UTC-05:00)
Language:

Cosmos 2150 Rocket - Orbit

View from above orbital plane
View from above orbital plane
View from above satellite
View from above satellite

Ground track
Ground track

The orbit data is extracted from the following two-line orbital elements,

1 21419U 91041B   14245.48514443  .00000086  00000-0  39954-4 0  6097
2 21419 074.0431 002.4602 0040888 179.4747 250.3119 14.33559726214473
Epoch (UTC): 02 September 2014 11:38:36
Eccentricity: 0.0040888
inclination: 74.0431°
perigee height: 750 km
apogee height: 809 km
right ascension of ascending node: 2.4602°
argument of perigee: 179.4747°
revolutions per day: 14.33559726
mean anomaly at epoch: 250.3119°
orbit number at epoch: 21447

The dashed part of the orbit path shows where the satellite is in the earth's shadow,  

DLR